[[{"header":{"parameterUnit":"m.s-1","parameterCategory":1,"la1":30.2991,"la2":30.254,"lo1":-89.0895,"lo2":-89.0444,"dy":0.0017,"dx":0.0017,"nx":28,"ny":28,"refTime":"2023-03-17T21:00:00:Z","depth":0,"parameterNumber":2,"parameterNumberName":"U-component_of_WINDS"},"data":[0,0,0,0,0,0,0,0,0,0,0,0,0,0,0,0,0,0,0,0,0,0,0,0,0,0,0,0,0,0,0,0,0,0,0,0,0,0,0,0,0,0,0,0,0,0,0,0,0,0,0,0,0,0,0,0,0,0,1.5266,1.5265,0,1.5227,1.5227,1.5226,1.5213,1.5213,1.5213,1.5213,1.5171,1.5169,1.5168,0,0,0,0,0,0,0,0,0,0,0,0,0,1.5324,1.5323,1.5266,1.5265,1.5265,1.5227,1.5227,1.5226,1.5213,1.5213,1.5213,1.5213,1.5171,1.5169,1.5168,0,0,0,0,0,0,0,0,0,0,0,0,0,1.5293,1.5323,1.5266,1.5254,1.5252,1.5227,1.5227,1.5226,1.5213,1.5213,1.5213,1.5214,1.5172,1.517,1.5168,1.5151,0,0,1.5162,1.5161,0,0,0,0,0,0,0,0,1.5295,1.5291,1.5256,1.5254,1.5253,1.5225,1.5231,1.5201,1.5213,1.5228,1.5213,1.5214,1.5188,1.5185,1.5177,1.5149,1.5147,1.5162,1.516,1.516,1.5159,0,0,0,0,0,0,0,1.5297,1.5293,1.525,1.5255,1.5253,1.5249,1.5245,1.5226,1.5207,1.5226,1.5225,1.5221,1.5187,1.5179,1.5176,1.5146,1.5162,1.516,1.5159,1.5158,1.5101,1.5101,0,0,0,0,0,0,1.5302,1.5295,1.5252,1.5249,1.5275,1.5248,1.5243,1.5234,1.5207,1.5203,1.5221,1.5221,1.5182,1.5178,1.5174,1.5152,1.516,1.5158,1.5157,1.5101,1.5101,1.5101,0,0,0,0,0,0,1.5303,1.5298,1.5253,1.5272,1.5266,1.5246,1.5236,1.5233,1.5224,1.5203,1.5199,1.5216,1.5182,1.5177,1.5157,1.5151,1.5157,1.5155,1.5102,1.5101,1.5101,1.5108,0,0,0,0,0,0,1.5305,1.5299,1.5293,1.5272,1.5265,1.5237,1.5236,1.5232,1.5222,1.5221,1.5198,1.5194,1.5182,1.516,1.5155,1.5148,1.5154,1.5102,1.5102,1.5101,1.5108,1.5108,1.5108,0,0,0,0,0,1.5307,1.5296,1.5293,1.5288,1.5257,1.5237,1.5233,1.522,1.5221,1.5215,1.5201,1.5195,1.5152,1.5158,1.5152,1.5145,1.5103,1.5102,1.5101,1.5109,1.5108,1.5108,0,0,0,0,0,0,1.5317,1.5293,1.5289,1.5272,1.5256,1.5235,1.5226,1.522,1.5204,1.5204,1.5188,1.5183,1.5163,1.5152,1.5159,1.5126,1.5127,1.5125,1.5135,1.5134,1.5134,1.5136,1.5152,0,0,0,0,0,1.5317,1.5303,1.5283,1.5269,1.5262,1.5246,1.5236,1.5228,1.5211,1.5205,1.5189,1.5172,1.5155,1.5144,1.5127,1.5107,1.5101,1.5099,1.5098,1.5098,1.5096,1.5083,1.5082,1.5098,1.5098,1.5098,0,0,1.5317,1.5302,1.5295,1.5271,1.5258,1.5243,1.524,1.5225,1.5213,1.5202,1.5182,1.517,1.515,1.5129,1.5119,1.5119,1.5091,1.5097,1.5097,1.5095,1.5082,1.5081,1.508,1.5097,1.5098,1.5098,0,0,1.5309,1.5297,1.5284,1.5272,1.5253,1.5242,1.5239,1.5218,1.521,1.5189,1.518,1.5165,1.5136,1.5122,1.5111,1.5097,1.509,1.5092,1.509,1.5077,1.5076,1.5075,1.5068,1.5067,1.509,1.509,1.509,0,1.5311,1.529,1.5278,1.5263,1.5252,1.5242,1.5227,1.5215,1.5192,1.5184,1.5184,1.5147,1.5132,1.5108,1.5104,1.5096,1.5091,1.5094,1.5077,1.5076,1.5075,1.5068,1.5066,1.5091,1.5091,1.5091,1.5091,0,1.5292,1.5277,1.5269,1.5247,1.5235,1.522,1.5205,1.5194,1.5187,1.5175,1.5154,1.5137,1.5115,1.5109,1.5102,1.5083,1.5083,1.5081,1.5081,1.5074,1.5067,1.5065,1.5091,1.5091,1.5091,1.5091,0,0,1.529,1.5261,1.5258,1.5248,1.5226,1.5213,1.5197,1.5178,1.5168,1.5152,1.5137,1.5113,1.511,1.5097,1.5088,1.5077,1.5066,1.5076,1.5075,1.5073,1.5043,1.5044,1.5042,1.5061,1.5061,1.506,1.5044,0,1.5279,1.5251,1.524,1.5217,1.5202,1.5192,1.5178,1.5162,1.5151,1.5135,1.5122,1.5105,1.5103,1.5095,1.5084,1.507,1.5059,1.5071,1.5046,1.5045,1.5051,1.5039,1.504,1.5026,1.5042,1.5041,1.5041,0,1.5262,1.5246,1.5222,1.5201,1.5195,1.5182,1.5163,1.5149,1.513,1.5122,1.5108,1.5099,1.508,1.5082,1.5056,1.5064,1.5053,1.5044,1.5043,1.504,1.5042,1.5034,1.5021,1.5018,1.5037,1.5037,1.5038,0,1.5261,1.5234,1.5216,1.5207,1.5183,1.5174,1.5163,1.5145,1.5133,1.5116,1.5108,1.5088,1.5077,1.5061,1.5046,1.5049,1.502,1.5021,1.5012,1.5012,1.5006,1.5006,1.499,1.5,1.5,1.5001,1.5001,0,1.525,1.5235,1.5215,1.5204,1.5187,1.5173,1.5156,1.5144,1.5128,1.5113,1.5103,1.5089,1.5071,1.5054,1.5042,1.5021,1.5016,1.5008,1.5005,1.5009,1.5009,1.5001,1.5001,1.5,1.5,1.5,1.5,0,1.5246,1.5232,1.5211,1.519,1.5184,1.5172,1.5153,1.5141,1.5129,1.511,1.5105,1.5085,1.5065,1.5049,1.5022,1.5014,1.4991,1.4989,1.4998,1.4996,1.4987,1.4988,1.4964,1.4959,1.4974,1.4974,1.4974,0,1.5239,1.5228,1.5205,1.5194,1.5184,1.5168,1.5156,1.5141,1.5129,1.5106,1.5097,1.5076,1.5058,1.5026,1.5009,1.4988,1.4983,1.4976,1.498,1.4984,1.4982,1.4982,1.498,1.4976,1.4976,1.4976,1.4976,0,1.5228,1.5221,1.5206,1.5187,1.5173,1.5157,1.5141,1.5133,1.5115,1.5102,1.5082,1.5068,1.5041,1.502,1.4997,1.4984,1.4976,1.4975,1.4971,1.4974,1.498,1.4975,1.4996,1.4975,1.4975,1.4975,1.4975,1.4975,1.5222,1.5211,1.5192,1.5174,1.5161,1.5146,1.5133,1.512,1.5103,1.508,1.5072,1.5051,1.5031,1.4999,1.4986,1.4968,1.4968,1.4963,1.4962,1.496,1.496,1.4983,1.4964,1.4964,1.4964,1.4964,1.4964,0,1.5209,1.5197,1.5181,1.5159,1.5144,1.5139,1.5121,1.5108,1.509,1.5073,1.5056,1.5031,1.501,1.4991,1.4969,1.4958,1.4954,1.4953,1.4953,1.495,1.4963,1.4967,1.4956,1.4956,1.4956,1.4956,1.4956,1.4956,1.5201,1.5181,1.5173,1.5146,1.5133,1.5113,1.5103,1.5088,1.5074,1.5048,1.503,1.5019,1.5,1.4976,1.4956,1.4951,1.4943,1.4942,1.4936,1.4948,1.4949,1.495,1.4954,1.4941,1.4941,1.4924,1.4924,1.4924]},{"header":{"parameterUnit":"m.s-1","parameterCategory":1,"la1":30.2991,"la2":30.254,"lo1":-89.0895,"lo2":-89.0444,"dy":0.0017,"dx":0.0017,"nx":28,"ny":28,"refTime":"2023-03-17T21:00:00:Z","depth":0,"parameterNumber":3,"parameterNumberName":"V-component_of_WINDS"},"data":[0,0,0,0,0,0,0,0,0,0,0,0,0,0,0,0,0,0,0,0,0,0,0,0,0,0,0,0,0,0,0,0,0,0,0,0,0,0,0,0,0,0,0,0,0,0,0,0,0,0,0,0,0,0,0,0,0,0,-4.8036,-4.8037,0,-4.816,-4.8162,-4.8163,-4.8064,-4.806,-4.8056,-4.8052,-4.8176,-4.8183,-4.819,0,0,0,0,0,0,0,0,0,0,0,0,0,-4.7709,-4.7716,-4.8035,-4.8037,-4.8039,-4.816,-4.8162,-4.8163,-4.8065,-4.806,-4.8055,-4.805,-4.8174,-4.8182,-4.8191,0,0,0,0,0,0,0,0,0,0,0,0,0,-4.7844,-4.7718,-4.8035,-4.8004,-4.8003,-4.816,-4.8162,-4.8164,-4.8066,-4.806,-4.8054,-4.8048,-4.8171,-4.8182,-4.8192,-4.8385,0,0,-4.8225,-4.823,0,0,0,0,0,0,0,0,-4.7837,-4.7856,-4.8007,-4.8007,-4.8005,-4.809,-4.8092,-4.8238,-4.8068,-4.8042,-4.8052,-4.8045,-4.8153,-4.8164,-4.8202,-4.8391,-4.8396,-4.8226,-4.8233,-4.8238,-4.8241,0,0,0,0,0,0,0,-4.7827,-4.785,-4.8085,-4.801,-4.8008,-4.7983,-4.7995,-4.8119,-4.8131,-4.8044,-4.8037,-4.8053,-4.8151,-4.8191,-4.8204,-4.8398,-4.8226,-4.8236,-4.8242,-4.8247,-4.8752,-4.8759,0,0,0,0,0,0,-4.7822,-4.7843,-4.8081,-4.8088,-4.7904,-4.7994,-4.8008,-4.8069,-4.8129,-4.8133,-4.8059,-4.8048,-4.8176,-4.8191,-4.8208,-4.8439,-4.8237,-4.8248,-4.8254,-4.8745,-4.8754,-4.8761,0,0,0,0,0,0,-4.7815,-4.7844,-4.8076,-4.7964,-4.7992,-4.8007,-4.8076,-4.8075,-4.8116,-4.8141,-4.8142,-4.8098,-4.8172,-4.8193,-4.8342,-4.8442,-4.8252,-4.8262,-4.8737,-4.8748,-4.8757,-4.8902,0,0,0,0,0,0,-4.7806,-4.7842,-4.7916,-4.7967,-4.7998,-4.821,-4.8082,-4.8082,-4.8135,-4.8123,-4.8178,-4.8181,-4.8168,-4.8327,-4.8353,-4.8453,-4.8271,-4.8728,-4.8742,-4.8754,-4.8888,-4.8916,-4.8939,0,0,0,0,0,-4.7795,-4.7951,-4.7921,-4.795,-4.8091,-4.8215,-4.8233,-4.8216,-4.8143,-4.8218,-4.8234,-4.8179,-4.8426,-4.8343,-4.8372,-4.8476,-4.8722,-4.8738,-4.8753,-4.8877,-4.891,-4.8939,0,0,0,0,0,0,-4.7911,-4.7957,-4.7924,-4.8101,-4.8155,-4.8199,-4.8292,-4.8252,-4.8328,-4.8313,-4.8287,-4.8301,-4.8458,-4.8481,-4.8388,-4.8666,-4.8562,-4.8584,-4.8646,-4.8678,-4.8703,-4.8695,-4.828,0,0,0,0,0,-4.7957,-4.8055,-4.8089,-4.8242,-4.8271,-4.8278,-4.8331,-4.8313,-4.8368,-4.839,-4.8416,-4.8471,-4.856,-4.862,-4.8704,-4.889,-4.8901,-4.8976,-4.9002,-4.9023,-4.9043,-4.9144,-4.9178,-4.8812,-4.8812,-4.8812,0,0,-4.8054,-4.8091,-4.8154,-4.8267,-4.8307,-4.8408,-4.8297,-4.8409,-4.8484,-4.8406,-4.855,-4.8572,-4.863,-4.88,-4.8875,-4.8824,-4.9146,-4.9042,-4.9059,-4.9068,-4.9164,-4.9198,-4.9229,-4.8823,-4.8821,-4.8819,0,0,-4.8282,-4.832,-4.8452,-4.8495,-4.8557,-4.856,-4.8592,-4.8642,-4.8653,-4.8797,-4.8742,-4.8829,-4.8984,-4.9029,-4.9071,-4.9317,-4.927,-4.9344,-4.9479,-4.9578,-4.9607,-4.9632,-4.9721,-4.9753,-4.9364,-4.9364,-4.9364,0,-4.8394,-4.8546,-4.8525,-4.8642,-4.8693,-4.8628,-4.8762,-4.8803,-4.889,-4.8926,-4.8867,-4.9061,-4.9095,-4.9275,-4.9335,-4.9371,-4.9407,-4.9339,-4.9604,-4.963,-4.9653,-4.9738,-4.9771,-4.9373,-4.9372,-4.9371,-4.937,0,-4.8682,-4.8788,-4.8887,-4.8974,-4.9036,-4.916,-4.9157,-4.9222,-4.9199,-4.9208,-4.9355,-4.9394,-4.9486,-4.9526,-4.9504,-4.9703,-4.9669,-4.9608,-4.9503,-4.9697,-4.9777,-4.9809,-4.9386,-4.9382,-4.938,-4.9378,0,0,-4.8989,-4.9062,-4.9099,-4.9138,-4.9202,-4.9283,-4.9404,-4.9494,-4.9551,-4.9612,-4.9714,-4.9846,-4.979,-4.9839,-4.982,-4.9907,-5.0101,-4.9835,-4.9836,-4.9885,-5.0324,-5.0372,-5.041,-5.0069,-5.0075,-5.008,-5.032,0,-4.9222,-4.9435,-4.9419,-4.962,-4.9718,-4.9657,-4.9762,-4.9813,-4.9824,-4.9908,-4.9919,-5.0014,-4.9932,-4.9961,-5.0044,-5.006,-5.0189,-5.0042,-5.0163,-5.0168,-5.0153,-5.0451,-5.0501,-5.0726,-5.035,-5.0356,-5.0359,0,-4.9523,-4.9596,-4.9807,-4.9857,-4.9898,-4.9993,-5.0075,-5.0156,-5.0211,-5.0213,-5.0268,-5.0235,-5.0356,-5.0247,-5.0414,-5.0315,-5.0363,-5.0378,-5.0386,-5.0399,-5.0277,-5.0473,-5.0797,-5.0832,-5.0407,-5.0404,-5.04,0,-4.9728,-4.9879,-5.0025,-5.006,-5.0121,-5.019,-5.0218,-5.0267,-5.0323,-5.0394,-5.043,-5.0513,-5.0559,-5.0624,-5.0614,-5.0535,-5.0785,-5.0674,-5.079,-5.0791,-5.0848,-5.0845,-5.1186,-5.0875,-5.0875,-5.0874,-5.0873,0,-4.9992,-5.0124,-5.0119,-5.0209,-5.0355,-5.0335,-5.0479,-5.0499,-5.0543,-5.0636,-5.0587,-5.0674,-5.0655,-5.0742,-5.0734,-5.0875,-5.0895,-5.09,-5.0897,-5.0906,-5.0906,-5.0939,-5.0924,-5.0883,-5.0881,-5.0879,-5.0878,0,-5.0247,-5.0249,-5.0405,-5.045,-5.0464,-5.057,-5.0608,-5.0693,-5.0699,-5.0817,-5.0844,-5.0854,-5.0954,-5.095,-5.1062,-5.1057,-5.123,-5.1208,-5.1213,-5.1209,-5.1326,-5.1316,-5.1703,-5.1753,-5.1407,-5.1411,-5.1413,0,-5.0416,-5.0517,-5.0573,-5.0632,-5.0666,-5.0761,-5.0818,-5.0801,-5.0862,-5.0933,-5.1009,-5.1105,-5.118,-5.1342,-5.1359,-5.1445,-5.1425,-5.1555,-5.1438,-5.1444,-5.143,-5.1425,-5.1436,-5.1579,-5.1583,-5.1586,-5.1588,0,-5.0718,-5.0714,-5.0798,-5.0884,-5.0954,-5.102,-5.108,-5.1131,-5.112,-5.1191,-5.1293,-5.1352,-5.1467,-5.1563,-5.1645,-5.1672,-5.163,-5.1625,-5.1656,-5.1668,-5.1668,-5.1672,-5.1278,-5.1616,-5.1614,-5.1611,-5.161,-5.1609,-5.0937,-5.1024,-5.1078,-5.1173,-5.1217,-5.1275,-5.1358,-5.1375,-5.146,-5.1554,-5.1538,-5.1653,-5.1704,-5.1811,-5.1846,-5.1935,-5.1889,-5.1934,-5.1946,-5.1958,-5.1973,-5.1652,-5.1949,-5.1948,-5.1948,-5.1947,-5.1946,0,-5.1237,-5.1269,-5.1357,-5.1444,-5.152,-5.1473,-5.1537,-5.1603,-5.1705,-5.1758,-5.1834,-5.1951,-5.2044,-5.2068,-5.2156,-5.2223,-5.2205,-5.2247,-5.2243,-5.225,-5.2008,-5.1973,-5.226,-5.226,-5.226,-5.2259,-5.2259,-5.2259,-5.1403,-5.1548,-5.1551,-5.1717,-5.1747,-5.186,-5.1901,-5.1954,-5.1996,-5.213,-5.2207,-5.2223,-5.2264,-5.2355,-5.2437,-5.2442,-5.2478,-5.2528,-5.2525,-5.2298,-5.2267,-5.2237,-5.2204,-5.2535,-5.2536,-5.276,-5.2762,-5.2764]}]]